{"data":{"norad_id":68864,"epoch":"2026-05-25T04:00:03.998880Z","epoch_age_seconds":54421,"freshness":"FRESH","line1":"1 68864U 26095A   26145.16671295 -.01567829  00000+0 -72350-1 0  9996","line2":"2 68864  51.8799 354.4595 0008589 227.6999 234.9567 15.22872431  4906","mean_motion":15.22872431,"eccentricity":0.0008589,"inclination_deg":51.8799,"raan_deg":354.4595,"arg_perigee_deg":227.6999,"mean_anomaly_deg":234.9567,"bstar":-0.07235,"rev_number":490,"period_min":94.558150156702,"perigee_km":491.27633980468,"apogee_km":503.08676201143,"semimajor_km":6875.3185509081,"source":"CELESTRAK","updated_at":"2026-05-25T13:38:08.645253Z"}}